Gunnison, CO

4:46 AM MDT on September 20, 2019 (GMT -0600)
Gunnison County

Weather History for KGUC - July, 2019

Change the Weather History Date:

Friday, July 12, 2019

  Actual Average Record
Temperature  
Mean Temperature 63 °F -  
Max Temperature 82 °F 77 °F 89 °F (2003)
Min Temperature 44 °F 44 °F 37 °F (2016)
Degree Days  
Heating Degree Days 2    
Growing Degree Days 13 (Base 50)    
Moisture  
Dew Point 38 °F    
Average Humidity 45    
Maximum Humidity 79    
Minimum Humidity 16    
Precipitation  
Precipitation 0.00 in - - ()
Sea Level Pressure  
Sea Level Pressure 30.15 in    
Wind  
Wind Speed 4 mph (NNE)    
Max Wind Speed 16 mph    
Max Gust Speed 25 mph    
Visibility 10 miles    
Events Rain    
Averages and records for this station are not official NWS values.
T = Trace of Precipitation, MM = Missing Value Source: NWS Daily Summary

Daily Weather History Graph

Daily Weather History Graph

Search for Another Location

Airport or City:

Astronomy

Jul. 12, 2019 Rise Set
Actual Time 5:53 AM MDT 8:32 PM MDT
Civil Twilight 5:22 AM MDT 9:03 PM MDT
Nautical Twilight 4:43 AM MDT 9:42 PM MDT
Astronomical Twilight 3:59 AM MDT 10:26 PM MDT
Moon 4:56 PM MDT (7/12) 2:37 AM MDT (7/12)
Length of Visible Light 15h 41m
Length of Day
14h 39m
Waxing Gibbous, 83% of the Moon is Illuminated
Jul 12
Waxing Gibbous
Jul 16
Full
Jul 24
Last Quarter
Jul 31
New
Aug 7
First Quarter

Hourly Weather History & Observations

Time (MDT) Temp. Windchill Dew Point Humidity Pressure Visibility Wind Dir Wind Speed Gust Speed Precip Events Conditions
12:56 AM 54.0 °F - 37.9 °F 55% 30.17 in 10.0 mi Calm Calm - N/A   Clear
2:56 AM 46.9 °F - 37.9 °F 71% 30.19 in 10.0 mi NNE 3.5 mph - N/A   Clear
3:56 AM 44.1 °F - 37.9 °F 79% 30.22 in 10.0 mi Calm Calm - N/A   Clear
4:56 AM 44.1 °F 42.5 °F 37.9 °F 79% 30.25 in 10.0 mi NNW 3.5 mph - N/A   Clear
5:56 AM 44.1 °F 41.5 °F 37.0 °F 76% 30.26 in 10.0 mi NNW 4.6 mph - N/A   Clear
6:56 AM 45.0 °F - 37.0 °F 74% 30.27 in 10.0 mi Calm Calm - N/A   Clear
7:56 AM 51.1 °F - 39.0 °F 63% 30.24 in 10.0 mi Calm Calm - N/A   Clear
8:56 AM 55.9 °F - 37.0 °F 49% 30.25 in 10.0 mi ENE 3.5 mph - N/A   Clear
9:56 AM 62.1 °F - 37.9 °F 41% 30.22 in 10.0 mi Variable 3.5 mph - N/A   Clear
10:56 AM 68.0 °F - 37.9 °F 33% 30.18 in 10.0 mi Calm Calm - N/A   Clear
11:56 AM 73.9 °F - 41.0 °F 30% 30.14 in 10.0 mi WSW 5.8 mph - N/A   Clear
12:56 PM 80.1 °F - 37.9 °F 22% 30.09 in 10.0 mi Variable 3.5 mph - N/A   Clear
1:56 PM 82.9 °F - 41.0 °F 23% 30.07 in 10.0 mi North 11.5 mph 18.4 mph N/A   Clear
2:56 PM 82.0 °F - 36.0 °F 19% 30.06 in 10.0 mi NNW 15.0 mph - N/A   Clear
3:56 PM 82.9 °F - 34.0 °F 17% 30.05 in 10.0 mi North 9.2 mph 17.3 mph N/A   Clear
4:56 PM 81.0 °F - 30.0 °F 16% 30.05 in 10.0 mi ESE 3.5 mph - N/A   Clear
5:56 PM 75.9 °F - 37.0 °F 24% 30.10 in 10.0 mi SSW 16.1 mph 23.0 mph 0.00 in   Mostly Cloudy
6:56 PM 75.9 °F - 35.1 °F 23% 30.10 in 10.0 mi ESE 8.1 mph 24.2 mph 0.00 in Rain Light Rain
7:56 PM 71.1 °F - 41.0 °F 34% 30.12 in 10.0 mi East 16.1 mph 25.3 mph 0.00 in   Mostly Cloudy
8:56 PM 66.9 °F - 42.1 °F 40% 30.12 in 10.0 mi ESE 10.4 mph - N/A   Clear
9:56 PM 64.9 °F - 42.1 °F 43% 30.13 in 10.0 mi NNW 8.1 mph - N/A   Clear
10:56 PM 57.9 °F - 44.1 °F 60% 30.14 in 10.0 mi North 9.2 mph - N/A   Clear
11:56 PM 55.9 °F - 43.0 °F 62% 30.14 in 10.0 mi NNE 5.8 mph - N/A   Clear